Date String (YYYY-MM-DD hh:mm:ss) UTC,Instrument flags,Ambient pressure (hPa),Sample flow (lpm),Bypass flow (lpm),Sample temperature (°C),Ambient temperature (°C),ASC tube jacket temperature (°C),LED temperature (°C),Box temperature (°C),Sample RH (%),Span deviation,Mass concentration (μg/m³),Mass concentration (μg/m³),Mass concentration (μg/m³)
DateTimeUTC,F1_M11,P_M11,Q1_M11,Q2_M11,T1_M11,T2_M11,T3_M11,T4_M11,T5_M11,U1_M11,ZSPAN_M11,X0_M11,X2_M11,X1_M11
2022-01-13 22:00:00,,0826.7,5.00,0.00,30.3,29.3,00.0,39.4,32.0,09.7,0012.1,0015.21,0009.29,0008.41
2022-01-13 22:01:00,,0826.7,5.01,0.00,30.3,29.4,00.0,39.4,32.0,09.7,0012.3,0014.83,0009.29,0008.40
2022-01-13 22:02:00,,0826.7,4.98,0.00,30.3,29.4,00.0,39.3,32.0,09.5,0012.5,0014.68,0009.21,0008.36
2022-01-13 22:03:00,,0826.7,5.01,0.00,30.3,29.4,00.0,39.3,32.0,10.1,0012.4,0014.92,0009.20,0008.37
2022-01-13 22:04:00,,0826.7,4.98,0.00,30.3,29.4,00.0,39.4,32.1,10.4,0012.3,0015.10,0009.28,0008.43
2022-01-13 22:05:00,,0826.7,5.01,0.00,30.3,29.4,00.0,39.4,32.0,09.3,0011.9,0014.81,0009.19,0008.34
2022-01-13 22:06:00,,0826.6,4.99,0.00,30.3,29.5,00.0,39.4,32.0,08.6,0012.7,0014.05,0008.92,0008.10
2022-01-13 22:07:00,,0826.7,5.01,0.00,30.3,29.5,00.0,39.4,32.1,08.0,0012.8,0013.82,0008.54,0007.77
2022-01-13 22:08:00,,0826.6,5.00,0.00,30.3,29.5,00.0,39.4,32.1,07.9,0013.0,0013.98,0008.15,0007.41
2022-01-13 22:09:00,,0826.7,5.01,0.00,30.4,29.5,00.0,39.4,32.1,09.1,0012.7,0013.61,0007.93,0007.19
2022-01-13 22:10:00,,0826.6,4.99,0.00,30.4,29.5,00.0,39.4,32.1,09.2,0013.2,0013.19,0007.82,0007.11
2022-01-13 22:11:00,,0826.6,5.02,0.00,30.4,29.5,00.0,39.4,32.1,09.0,0010.6,0013.03,0007.72,0007.03
2022-01-13 22:12:00,,0826.7,4.99,0.00,30.4,29.5,00.0,39.4,32.1,09.0,0012.8,0012.81,0007.61,0006.96
2022-01-13 22:13:00,,0826.7,5.01,0.00,30.4,29.5,00.0,39.4,32.1,08.8,0008.7,0012.71,0007.45,0006.82
2022-01-13 22:14:00,,0826.6,5.01,0.00,30.4,29.5,00.0,39.4,32.1,09.7,0008.1,0012.87,0007.28,0006.65
2022-01-13 22:15:00,,0826.6,4.99,0.00,30.4,29.5,00.0,39.4,32.1,09.7,0011.4,0012.65,0007.17,0006.55
2022-01-13 22:16:00,,0826.6,5.01,0.00,30.4,29.6,00.0,39.4,32.1,09.2,0012.4,0012.53,0007.11,0006.53
2022-01-13 22:17:00,,0826.6,4.99,0.00,30.4,29.6,00.0,39.4,32.2,09.0,0008.2,0012.56,0007.18,0006.61
2022-01-13 22:18:00,,0826.5,5.00,0.00,30.4,29.6,00.0,39.4,32.2,09.3,0010.8,0012.78,0007.43,0006.83
2022-01-13 22:19:00,,0826.5,5.00,0.00,30.4,29.6,00.0,39.4,32.2,09.6,0010.5,0012.53,0007.73,0007.13
2022-01-13 22:20:00,,0826.5,5.01,0.00,30.4,29.5,00.0,39.4,32.2,09.3,0009.8,0012.55,0007.91,0007.30
2022-01-13 22:21:00,,0826.5,5.00,0.00,30.4,29.5,00.0,39.4,32.1,09.0,0003.8,0012.55,0008.01,0007.40
2022-01-13 22:22:00,,0826.5,4.98,0.00,30.4,29.5,00.0,39.4,32.1,08.3,0006.4,0013.16,0008.08,0007.46
2022-01-13 22:23:00,,0826.5,5.01,0.00,30.4,29.6,00.0,39.4,32.1,07.7,0005.0,0013.41,0008.01,0007.35
2022-01-13 22:24:00,,0826.4,4.99,0.00,30.4,29.6,00.0,39.4,32.1,07.8,0003.7,0013.13,0007.89,0007.21
2022-01-13 22:25:00,,0826.4,5.00,0.00,30.4,29.6,00.0,39.4,32.1,08.2,0004.2,0012.63,0007.92,0007.26
2022-01-13 22:26:00,,0826.3,5.00,0.00,30.5,29.6,00.0,39.4,32.2,08.5,0005.3,0013.31,0007.91,0007.29
2022-01-13 22:27:00,,0826.3,4.99,0.00,30.5,29.6,00.0,39.4,32.2,09.2,0006.7,0013.42,0008.04,0007.40
2022-01-13 22:28:00,,0826.3,5.01,0.00,30.5,29.6,00.0,39.4,32.1,09.3,0007.8,0013.73,0008.15,0007.53
2022-01-13 22:29:00,,0826.2,5.01,0.00,30.5,29.6,00.0,39.4,32.2,09.0,0008.1,0013.92,0008.26,0007.64
2022-01-13 22:30:00,,0826.2,5.00,0.00,30.5,29.6,00.0,39.4,32.2,09.0,0006.5,0014.10,0008.41,0007.78
2022-01-13 22:31:00,,0826.2,5.00,0.00,30.5,29.6,00.0,39.4,32.2,09.0,0006.3,0014.31,0008.58,0007.97
2022-01-13 22:32:00,,0826.2,5.00,0.00,30.5,29.6,00.0,39.4,32.2,09.1,0007.9,0014.98,0008.85,0008.21
2022-01-13 22:33:00,,0826.2,4.99,0.00,30.5,29.5,00.0,39.5,32.1,09.1,0007.7,0015.00,0009.22,0008.53
2022-01-13 22:34:00,,0826.3,5.00,0.00,30.4,27.9,00.0,39.4,31.8,09.3,0008.0,0015.12,0009.76,0009.03
2022-01-13 22:35:00,,0826.2,5.01,0.00,30.2,25.5,00.0,39.4,31.2,09.5,0007.8,0017.29,0010.48,0009.67
2022-01-13 22:36:00,,0826.2,4.99,0.00,30.0,25.2,00.0,39.3,31.0,09.6,0007.3,0018.91,0010.88,0010.08
2022-01-13 22:37:00,,0826.2,5.01,0.00,29.9,25.7,00.0,39.2,31.0,09.8,0007.1,0018.29,0011.20,0010.37
2022-01-13 22:38:00,,0826.2,5.01,0.00,29.8,26.3,00.0,39.1,31.1,09.9,0007.0,0019.63,0011.43,0010.59
2022-01-13 22:39:00,,0826.2,4.99,0.00,29.8,26.8,00.0,39.0,31.2,10.0,0006.6,0020.29,0011.60,0010.73
2022-01-13 22:40:00,,0826.1,5.00,0.00,29.7,27.2,00.0,39.0,31.3,09.6,0006.8,0020.34,0011.68,0010.80
2022-01-13 22:41:00,,0826.1,5.00,0.00,29.7,27.6,00.0,39.0,31.3,09.2,0006.7,0020.22,0011.73,0010.87
2022-01-13 22:42:00,,0826.1,5.00,0.00,29.8,27.8,00.0,38.9,31.4,09.6,0006.4,0020.99,0011.77,0010.90
2022-01-13 22:43:00,,0826.2,4.99,0.00,29.8,28.1,00.0,38.9,31.4,09.8,0006.3,0021.20,0011.78,0010.89
2022-01-13 22:44:00,,0826.1,5.01,0.00,29.8,28.2,00.0,38.9,31.4,09.6,0006.0,0021.08,0011.70,0010.84
2022-01-13 22:45:00,,0826.2,4.99,0.00,29.8,28.4,00.0,38.9,31.5,09.6,0005.6,0021.07,0011.57,0010.74
2022-01-13 22:46:00,,0826.2,4.99,0.00,29.8,28.5,00.0,38.9,31.5,09.2,0005.6,0020.25,0011.48,0010.67
2022-01-13 22:47:00,,0826.1,5.01,0.00,29.8,28.7,00.0,38.9,31.5,09.2,0006.2,0018.77,0011.41,0010.60
2022-01-13 22:48:00,,0826.0,5.00,0.00,29.9,28.7,00.0,38.9,31.6,09.4,0006.6,0018.90,0011.44,0010.61
2022-01-13 22:49:00,,0826.1,4.99,0.00,29.9,28.8,00.0,38.9,31.6,09.7,0007.2,0017.84,0011.45,0010.60
2022-01-13 22:50:00,,0826.1,5.01,0.00,29.9,28.9,00.0,38.9,31.7,09.5,0007.7,0017.45,0011.54,0010.64
2022-01-13 22:51:00,,0826.1,5.00,0.00,29.9,29.0,00.0,38.9,31.7,09.8,0006.8,0017.54,0011.63,0010.72
2022-01-13 22:52:00,,0826.0,4.98,0.00,29.9,29.0,00.0,38.9,31.7,09.9,0006.8,0017.83,0011.72,0010.80
2022-01-13 22:53:00,,0826.0,5.01,0.00,30.0,29.1,00.0,38.9,31.8,09.8,0007.0,0017.60,0011.79,0010.86
2022-01-13 22:54:00,,0826.0,4.99,0.00,30.0,29.1,00.0,38.9,31.8,09.8,0006.9,0017.03,0011.81,0010.92
2022-01-13 22:55:00,,0826.0,5.00,0.00,30.0,29.2,00.0,38.9,31.8,09.5,0007.4,0017.31,0011.90,0010.99
2022-01-13 22:56:00,,0826.0,5.01,0.00,30.0,29.2,00.0,38.9,31.8,09.4,0007.2,0017.42,0012.01,0011.06
2022-01-13 22:57:00,,0826.0,4.99,0.00,30.1,29.2,00.0,39.0,31.9,09.3,0006.9,0018.09,0012.06,0011.12
2022-01-13 22:58:00,,0826.0,5.00,0.00,30.1,29.2,00.0,39.0,31.9,09.2,0006.8,0018.56,0012.15,0011.17
2022-01-13 22:59:00,,0826.0,4.99,0.00,30.1,29.3,00.0,39.0,31.9,09.6,0007.0,0018.71,0012.14,0011.17
